ONEWEB-0259 (48977 NORAD) Tracking and Keplerian Element Data

This shows tracking and keplerian element data for the satellite.

Feedback or suggestion? Click here.




ElementValue
Catalog48977
NameONEWEB-0259
Epoch Orbit1390
Epoch Day269.25001157
Epoch Year2021
RAAN211.8951
Inclination87.8984
Eccentricity0.0011537
Argument of Perigee355.0385
Mean Anonmoly271.5962
Mean Motion13.42332804
Decay Rate1.4E-07
L11 48977U 21060L 21269.25001157 .00000014 00000-0 00000+0 0 9999
L22 48977 87.8984 211.8951 0011537 355.0385 271.5962 13.42332804 13909

Live tracking and technical data element details for ONEWEB-0259 (NORAD 48977). ONEWEB-0259 can be tracked NOW for your location showing map with azimuth and elevation plus other details from your city location.

Track the satellite on the map from your city or location and see movement details for azimuth, elevation, latitude, longitude, range, height, and movement on the map or in text.







IsCatalogInMostPopularTable: catalog: 48977, numindb: 22
Update: records affected: 1



GetName: 48977 ONEWEB-0259

Hit Count: updated at: Sun, 26 Sep 2021 15:31:54 GMT